MMS 4

导读

MMS 4是美国NASA磁层多尺度任务(MMS)四颗卫星中的最后一颗,于2015年3月13日发射升空,与另外三颗卫星组网,专门对地球磁层磁场重联过程开展三维探测。任务通过四星编队飞行,首次实现对磁层边界区域的多尺度高精度观测,帮助科学家解开磁重联物理机制的核心谜题,对空间物理与天体物理研究具有里程碑意义,目前仍在轨开展科学探测。

基本信息
目录编号:
40485
目录名称:
MMS 4
国际标识:
2015-011D
轨道中心:
EARTH
卫星名称:
MMS 4
卫星全名:
--
卫星状态:
在轨 (已飞行4203 天)
发射日期:
2015-03-13 UTC
国别 :
美国 (US)
星等 :
--
该卫星已列入 空间交会检测服务 Space Conjunction Data Service (SCDS) ,当前飞行风险评估等级: 无高风险
轨道信息
数据来源 国际轨道数据
星历时间: 2026-09-14T06:00:02+0800
4小时前
查看轨道信息
半长轴: 98305.744km
偏心率: 0.8268506
轨道倾角: 72.950°
近地点辐角 169.410°
升交点赤经 347.759°
平近点角 349.709°
近地点: 10643.443km
远地点: 173211.771km
周期: 5112.438分钟
每日圈数: 0.281666
详细信息
使用方式:
暂无
2D轨道图
3D轨道图
轨道高度分析图
轨道倾角分析图
轨道综合分析图
查看轨道综合分析图
与全量物体交会距离演化趋势 订阅飞行安全评估服务
与全量物体交会风险概率演化趋势 订阅飞行安全评估服务